Location: Bluff Heights
(33.7692°N, 118.1592°W)
Time: 13:16:18
(UTC+00:00)

S-56A Canister/Altair - Pass Details

Date: 25 July 2021
Orbit: 632 x 2500 km, 38.9° (Epoch: 25 September)

Event Time Altitude Azimuth Distance (km) Brightness Sun altitude
Rises 05:26:00 0° 289° (WNW) 6,041 13.0 -25.3°
Reaches altitude 10° 05:30:13 10° 290° (WNW) 4,882 12.4 -25.9°
Maximum altitude 05:43:38 90° 18° (NNE) 1,780 9.2 -27.6°
Enters shadow 05:47:25 45° 112° (ESE) 2,055 9.2 -28.1°
